Regional Weather Roundup
Issued by NWS

Home | Current Version | Previous Version | Text Only | Print | Product List | Glossary Off
Versions: 1 2 3 4 5 6 7 8 9 10 11 12 13 14 15 16 17 18 19 20 21 22 23 24 25 26 27 28 29 30 31 32 33 34 35 36 37 38 39 40 41 42 43 44 45 46 47 48 49 50

000
ASUS44 KFWD 060715
RWRTX
NORTH TEXAS HOURLY WEATHER ROUNDUP
NATIONAL WEATHER SERVICE FORT WORTH TX
200 AM CDT FRI MAY 06 2016

NOTE: "FAIR" INDICATES FEW OR NO CLOUDS BELOW 12,000 FEET WITH NO
SIGNIFICANT WEATHER AND/OR OBSTRUCTIONS TO VISIBILITY.

TXZ118-119-060800-
DALLAS/FORT WORTH METROPLEX

CITY           SKY/WX    TMP DP  RH WIND       PRES   REMARKS
DFW AIRPORT    CLEAR     66  48  52 CALM      30.03F
DALLAS LOVE    CLEAR     64  51  62 E3        30.04F
FTW MEACHAM    CLEAR     64  52  64 CALM      30.04F
DAL-EXECUTIVE  CLEAR     58  48  69 SE3       30.04F
FTW-ALLIANCE   PTCLDY    53  50  89 CALM      30.04F
FTW-NAS-JRB    CLEAR     62  58  86 CALM      30.05F
FTW-SPINKS     CLEAR     54  52  92 CALM      30.06F
ARLINGTON      CLEAR     57  52  83 CALM      30.04F
GRAND PRAIRIE  CLEAR     65  51  59 CALM      30.06F
ADDISON        CLEAR     68  51  52 E5        30.06F
MESQUITE       CLEAR     60  54  80 CALM      30.05F
LANCASTER      CLEAR     56  51  84 CALM      30.05F
$$

TXZ091>094-102>105-117-120-121-131>134-060800-
NORTH CENTRAL TEXAS

CITY           SKY/WX    TMP DP  RH WIND       PRES   REMARKS
SHRMAN/DENISON CLEAR     56  46  68 E5        30.05F
GAINESVILLE    CLEAR     55  51  87 CALM      30.06F
BOWIE          CLEAR     54  50  87 CALM      30.06R
BRIDGEPORT     CLEAR     53  53  99 CALM      30.07F
DECATUR        CLEAR     66  44  45 CALM      30.06F
DENTON         CLEAR     54  52  93 CALM      30.04F
MCKINNEY       CLEAR     58  55  90 CALM      30.05F
GREENVILLE     CLEAR     54  52  94 CALM      30.05F
WAXAHACHIE     CLEAR     56  51  81 CALM      30.06F
CLEBURNE       CLEAR     63  52  67 CALM      30.06F
GRANBURY       CLEAR     57  52  84 CALM      30.06F
$$

TXZ083>090-098>101-113>116-127>130-139>142-154-155-060800-
WESTERN NORTH TEXAS

CITY           SKY/WX    TMP DP  RH WIND       PRES   REMARKS
WICHITA FALLS  CLEAR     60  48  64 SE6       30.04F
WF-KICKAPOO    CLEAR     61  52  71 CALM      30.06S
VERNON         CLEAR     62  46  56 S7        30.06S
ABILENE        NOT AVBL
ABILENE-DYESS  CLEAR     59  54  83 SE8       30.04F
BRECKENRIDGE   PTCLDY    65  50  59 SE7       30.05S
GRAHAM         PTCLDY    56  50  80 CALM      30.05S
MINERAL WELLS  PTCLDY    57  52  83 CALM      30.04F
STEPHENVILLE   PTCLDY    59  53  80 CALM      30.09S
COMANCHE       CLEAR     62  53  73 S6        30.07S
BROWNWOOD      CLEAR     59  55  88 CALM      30.07R FOG
COLEMAN        CLEAR     62  53  71 SW5       30.07S
$$

TXZ143>147-156>162-174-175-060800-
CENTRAL TEXAS

CITY           SKY/WX    TMP DP  RH WIND       PRES   REMARKS
WACO           CLOUDY    57  53  86 CALM      30.04F
WACO-MCGREGOR  CLEAR     57  53  86 CALM      30.04F
HILLSBORO      CLEAR     56  49  78 CALM      30.04F
CORSICANA      CLEAR     61  51  70 CALM      30.05F
MEXIA          CLEAR     60  49  67 CALM      30.04F
HEARNE         CLEAR     55  54  94 CALM      30.04F
TEMPLE         CLEAR     58  56  93 NW5       30.05F
KILLEEN        CLEAR     66  51  57 CALM      30.04F
KILLEEN-SKYLRK PTCLDY    62  54  74 NE3       30.04F
FORT HOOD      CLEAR     66  52  59 E5        30.03S
GATESVILLE     CLEAR     61  55  82 MISG      30.07F
HAMILTON       CLEAR     65  49  55 MISG      30.07S
LAMPASAS       CLEAR     60  57  90 CALM      30.05F
$$

TXZ095>097-106>112-122>126-135>138-148>153-164>167-060800-
EAST TEXAS

CITY           SKY/WX    TMP DP  RH WIND       PRES   REMARKS
PARIS          CLEAR     57  43  58 N5        30.05S
SULPHUR SPRNGS CLEAR     59  52  77 CALM      30.06F
MOUNT PLEASANT CLEAR     57  51  80 CALM      30.05F
GILMER         CLEAR     54  52  92 CALM      30.04F
MINEOLA        CLEAR     55  52  88 CALM      30.05F
TYLER          CLEAR     58  51  78 CALM      30.04F
LONGVIEW       CLEAR     57  51  80 NW3       30.03S
MARSHALL       CLEAR     53  50  91 CALM      30.05S
ATHENS         CLEAR     54  54 100 CALM      30.03F
PALESTINE      CLOUDY    55  53  92 CALM      30.05F
JACKSONVILLE   CLEAR     65  46  49 CALM      30.05F
HENDERSON      CLEAR     53  52  94 CALM      30.05F
CENTER         FAIR      56  55  95 CALM      30.02F
NACOGDOCHES    CLEAR     52  50  93 CALM      30.03S
LUFKIN         CLOUDY    55  53  93 CALM      30.02F
$$

SUPPLEMENTAL OBSERVATIONS (CENTRAL)

CITY           SKY/WX    TMP DP  RH WIND       PRES   REMARKS
LAKE TEXOMA      N/A     63  55  77 CALM        N/A
CADDO GRASSLND   N/A     54  52  94 SE1         N/A
PAT MAYSE LAKE   N/A     59  57  94 CALM        N/A
GREENVILLE       N/A     55  52  88 CALM        N/A
CEDAR HILL       N/A     57  48  72 CALM        N/A
LAKE LIMESTONE   N/A     57  55  94 CALM        N/A
MCGREGOR         N/A     57  52  82 CALM        N/A
TEMPLE           N/A     66  50  55 NE5         N/A
$$

SUPPLEMENTAL OBSERVATIONS (WEST)

CITY           SKY/WX    TMP DP  RH WIND       PRES   REMARKS
MILLERS CREEK    N/A     66  54  63 SE6G15      N/A
POSSUM KINGDOM   N/A     64  54  68 E5          N/A
LBJ GRASSLAND    N/A     59  48  67 SE2         N/A
GRANBURY         N/A     57  50  77 CALM        N/A
COMANCHE         N/A     63  52  67 S5          N/A
HAMBY            N/A     63  54  72 SE5         N/A
IVIE RESERVOIR   N/A     59  50  72 S5          N/A
COLORADO BEND    N/A     63  50  63 W2          N/A
$$

SUPPLEMENTAL OBSERVATIONS (EAST)

CITY           SKY/WX    TMP DP  RH WIND       PRES   REMARKS
CLARKSVILLE      N/A     61  45  55 N2          N/A
TEXARKANA        N/A     52  50  93 CALM        N/A
LINDEN           N/A     55  50  82 CALM        N/A
CADDO LAKE       N/A     48  45  87 CALM        N/A
GILMER           N/A     54  50  87 CALM        N/A
HENDERSON        N/A     54  50  87 CALM        N/A
LUFKIN           N/A     55  52  88 MISG        N/A
N SABINE NF      N/A     54  50  87 MISG        N/A
S SABINE NF      N/A     54  50  87 CALM        N/A
$$

SUPPLEMENTAL OBSERVATIONS ARE A COLLECTION OF AUTOMATED INSTRUMENTS
THAT ARE MAINTAINED BY A VARIETY OF FEDERAL AND STATE AGENCIES.
CERTAIN ELEMENTS...SUCH AS HUMIDITY VALUES AND SUSTAINED WIND
SPEEDS...MAY BE APPROXIMATED.




USA.gov is the U.S. government's official web portal to all federal, state and local government web resources and services.